Location: Izdebno
(52.6670°N, 16.2170°E)
Time: 06:54:01
(UTC+02:00)

Vanguard 1 - Pass Details

Date: 26 February 2024
Orbit: 653 x 3825 km, 34.2° (Epoch: 22 April)

Event Time Altitude Azimuth Distance (km) Brightness Sun altitude
Rises 18:26:56 0° 208° (SSW) 5,115 14.2 -9.8°
Reaches altitude 10° 18:30:30 10° 196° (SSW) 4,540 13.7 -10.3°
Maximum altitude 18:41:10 28° 144° (SE) 4,304 13.0 -11.9°
Enters shadow 18:53:20 15° 102° (ESE) 6,070 13.4 -13.8°
